GW5289 Weather Reports


Display with metric or nautical units.
time (UTC)temp
F
wind
direction
speed
MPH
gust
MPH
rain 1hr
in
rain 24hr
in
rain mn
in
humidity
%
barometer
mb
20260510220005 85 166 0.0 6.0 0.00 0.00 0.00 30 1012.8
20260510214511 84 124 2.0 5.0 0.00 0.00 0.00 30 1012.8
20260510213035 85 128 2.0 8.0 0.00 0.00 0.00 28 1012.8
20260510211526 85 134 2.0 6.0 0.00 0.00 0.00 28 1012.8
20260510210034 86 257 3.0 7.0 0.00 0.00 0.00 28 1012.7
20260510204508 85 266 3.0 6.0 0.00 0.00 0.00 29 1012.7
20260510203010 86 1 1.0 6.0 0.00 0.00 0.00 30 1012.6
20260510201519 85 278 3.0 7.0 0.00 0.00 0.00 29 1012.9
20260510200022 86 335 2.0 6.0 0.00 0.00 0.00 27 1012.9
20260510194509 86 252 3.0 8.0 0.00 0.00 0.00 28 1012.9
20260510193012 85 333 2.0 5.0 0.00 0.00 0.00 29 1013.2
20260510191512 86 321 1.0 6.0 0.00 0.00 0.00 25 1013.4
20260510190021 85 277 3.0 6.0 0.00 0.00 0.00 28 1013.5
20260510184525 86 168 2.0 5.0 0.00 0.00 0.00 28 1013.6
20260510183010 85 342 3.0 8.0 0.00 0.00 0.00 28 1013.6
20260510181539 85 343 2.0 4.0 0.00 0.00 0.00 29 1013.6
20260510180017 84 25 1.0 6.0 0.00 0.00 0.00 29 1013.8
20260510174503 85 339 3.0 6.0 0.00 0.00 0.00 28 1013.7
20260510173008 84 340 3.0 6.0 0.00 0.00 0.00 31 1013.9
20260510171510 83 333 2.0 6.0 0.00 0.00 0.00 30 1014.0
20260510170002 83 317 1.0 6.0 0.00 0.00 0.00 35 1014.0
20260510164503 81 132 2.0 4.0 0.00 0.00 0.00 33 1014.0
20260510163004 83 251 0.0 4.0 0.00 0.00 0.00 38 1014.0
20260510161508 81 166 1.0 5.0 0.00 0.00 0.00 39 1014.2
20260510160016 80 217 2.0 6.0 0.00 0.00 0.00 40 1014.4
20260510154504 81 335 1.0 4.0 0.00 0.00 0.00 41 1014.7
20260510153004 82 245 1.0 4.0 0.00 0.00 0.00 45 1014.9
20260510151508 79 78 1.0 6.0 0.00 0.00 0.00 45 1014.8
20260510150014 77 6 2.0 5.0 0.00 0.00 0.00 44 1014.7
20260510144517 78 13 2.0 3.0 0.00 0.00 0.00 44 1014.6
20260510143003 77 11 1.0 3.0 0.00 0.00 0.00 49 1014.5
20260510141507 77 139 0.0 3.0 0.00 0.00 0.00 53 1014.6
20260510140012 75 14 0.0 4.0 0.00 0.00 0.00 58 1014.6
20260510134514 73 244 0.0 4.0 0.00 0.00 0.00 62 1014.7
20260510133004 72 260 2.0 5.0 0.00 0.00 0.00 62 1014.6
20260510131503 70 359 1.0 4.0 0.00 0.00 0.00 67 1014.5
20260510130006 70 259 1.0 3.0 0.00 0.00 0.00 69 1014.6
20260510124514 69 254 1.0 3.0 0.00 0.00 0.00 71 1014.4
20260510123017 68 14 0.0 2.0 0.00 0.00 0.00 78 1014.3
20260510121504 66 282 0.0 2.0 0.00 0.00 0.00 83 1014.2
20260510120008 62 282 0.0 2.0 0.00 0.00 0.00 93 1013.9
20260510114512 58 282 0.0 0.0 0.00 0.00 0.00 95 1013.7
20260510113015 57 282 0.0 2.0 0.00 0.00 0.00 95 1013.5
20260510111519 56 302 0.0 2.0 0.00 0.00 0.00 95 1013.0
20260510110009 55 302 0.0 2.0 0.00 0.00 0.00 95 1012.7
20260510104507 55 188 0.0 2.0 0.00 0.00 0.00 95 1012.7
20260510103012 55 188 0.0 0.0 0.00 0.00 0.00 95 1012.5
20260510101519 55 188 0.0 0.0 0.00 0.00 0.00 94 1012.2
20260510100022 55 188 0.0 0.0 0.00 0.00 0.00 94 1012.1
20260510094506 56 188 0.0 0.0 0.00 0.00 0.00 94 1011.8
20260510093008 56 188 0.0 0.0 0.00 0.00 0.00 94 1011.7
20260510091517 56 188 0.0 0.0 0.00 0.00 0.00 94 1011.7
20260510090034 57 188 0.0 1.0 0.00 0.00 0.00 94 1011.6
20260510084530 57 188 0.0 0.0 0.00 0.00 0.00 93 1011.5
20260510083008 57 188 0.0 2.0 0.00 0.00 0.00 93 1011.3
20260510081523 58 188 0.0 2.0 0.00 0.00 0.00 93 1011.4
20260510080020 58 188 0.0 2.0 0.00 0.00 0.00 92 1011.3
20260510074523 58 188 0.0 2.0 0.00 0.00 0.00 92 1011.2
20260510073024 58 188 0.0 0.0 0.00 0.00 0.00 92 1011.1
20260510071510 58 188 0.0 2.0 0.00 0.00 0.00 91 1011.1
20260510070015 59 188 0.0 0.0 0.00 0.00 0.00 90 1011.1
20260510064520 59 188 0.0 0.0 0.00 0.00 0.00 89 1011.1
20260510063026 60 188 0.0 2.0 0.00 0.00 0.00 86 1011.1
20260510061538 62 188 0.0 2.0 0.00 0.00 0.00 84 1011.4
20260510060012 62 174 0.0 2.0 0.00 0.00 0.00 83 1011.4
20260510054506 63 288 0.0 2.0 0.00 0.00 0.00 82 1011.4
20260510053003 63 274 0.0 2.0 0.00 0.00 0.00 82 1011.6
20260510051506 63 254 0.0 2.0 0.00 0.00 0.00 81 1011.6
20260510050013 63 217 0.0 2.0 0.00 0.00 0.00 80 1011.6
20260510044504 64 252 0.0 2.0 0.00 0.00 0.00 79 1011.5
20260510043004 64 287 0.0 2.0 0.00 0.00 0.00 78 1011.4
20260510041504 64 219 0.0 2.0 0.00 0.00 0.00 78 1011.4
20260510040006 64 254 0.0 2.0 0.00 0.00 0.00 77 1011.3
20260510034512 64 221 0.0 2.0 0.00 0.00 0.00 76 1011.2
20260510033003 65 244 1.0 3.0 0.00 0.00 0.00 75 1011.2
20260510031504 65 244 1.0 3.0 0.00 0.00 0.00 73 1011.0
20260510030006 66 244 1.0 2.0 0.00 0.00 0.00 72 1011.0
20260510024517 66 255 2.0 3.0 0.00 0.00 0.00 71 1011.0
20260510023016 67 189 1.0 4.0 0.00 0.00 0.00 69 1010.8
20260510021504 67 203 1.0 4.0 0.00 0.00 0.00 69 1010.7
20260510020008 67 226 1.0 3.0 0.00 0.00 0.00 69 1010.4
20260510014509 67 227 0.0 2.0 0.00 0.00 0.00 69 1010.4
20260510013014 67 207 0.0 2.0 0.00 0.00 0.00 69 1010.4
20260510011532 67 221 0.0 2.0 0.00 0.00 0.00 68 1010.3
20260510010005 68 200 0.0 2.0 0.00 0.00 0.00 67 1010.2
20260510004510 69 205 0.0 2.0 0.00 0.00 0.00 65 1010.1
20260510003022 69 219 0.0 2.0 0.00 0.00 0.00 63 1009.9
20260510001517 71 253 0.0 2.0 0.00 0.00 0.00 59 1009.7
20260510000022 72 241 0.0 2.0 0.00 0.00 0.00 57 1009.5
20260509234517 73 189 1.0 4.0 0.00 0.00 0.00 56 1009.3
20260509233017 74 210 0.0 2.0 0.00 0.00 0.00 54 1009.4
20260509231528 74 165 1.0 3.0 0.00 0.00 0.00 52 1009.4
20260509230028 76 193 1.0 4.0 0.00 0.00 0.00 50 1009.3
20260509224525 77 210 2.0 5.0 0.00 0.00 0.00 48 1009.3
20260509223007 77 250 2.0 10.0 0.00 0.00 0.00 47 1009.2
20260509221509 77 250 1.0 6.0 0.00 0.00 0.00 47 1009.2